Flag for U.S.A. Weather past 2 weeks in San Francisco, California, U.S.A.

Now
56 °F

Clear.


Feels Like: 56 °F
Forecast: 49 / 60 °F
Wind: No wind

Location: San Francisco International Airport

Current Time: Jan 27, 2015 at 11:12:40 PM

Latest Report: Jan 27, 2015 at 10:56 PM


Visibility: 10 mi

Pressure: 30.26 "Hg

Humidity: 77%

Dew point: 49 °F

Location of San FranciscoLocation

Historic Weather in San Francisco — Graph

°F

San Francisco temperature yesterday

Maximum temperature yesterday: 62 °F (at 1:56 PM)
Minimum temperature yesterday: 49 °F (at 1:56 AM)
Average temperature yesterday: 56 °F

Past Weeks' High & Low Weather Summary

 TemperatureHumidityPressure
High68 °F (Jan 27, 1:56 PM)100% (Jan 13, 2:56 AM)30.37 "Hg (Jan 13, 2:56 AM)
Low44 °F (Jan 14, 5:56 AM)43% (Jan 21, 2:56 PM)29.96 "Hg (Jan 26, 2:56 PM)
Average55 °F84%30.19 "Hg
* Reported Jan 12 9:56 PM — Jan 27 9:56 PM, San Francisco, Weather by CustomWeather, © 2014

Note: Actual official high and low records may vary slightly from our data, if they occured in-between our weather recording intervals... More about our weather records

Advertising

San Francisco weather history for previous 24 hours

 ConditionsComfort  
Time TempWeatherWind HumidityBarometerVisibility
9:56 PM
Jan 27
58 °FPassing clouds.No wind81%30.25 "Hg10 mi
8:56 PM58 °FPassing clouds.No wind87%30.25 "Hg10 mi
7:56 PM57 °FPassing clouds.No wind93%30.24 "Hg10 mi
6:56 PM60 °FPassing clouds.No wind72%30.23 "Hg10 mi
5:56 PM61 °FPartly cloudy.No wind67%30.21 "Hg10 mi
4:56 PM64 °FPartly sunny.7 mph58%30.20 "Hg10 mi
3:56 PM66 °FPartly sunny.3 mph52%30.20 "Hg10 mi
2:56 PM66 °FPartly sunny.7 mph50%30.19 "Hg10 mi
1:56 PM68 °FMore clouds than sun.12 mph44%30.18 "Hg10 mi
12:56 PM66 °FOvercast.9 mph50%30.19 "Hg10 mi
11:56 AM61 °FOvercast.9 mph72%30.19 "Hg10 mi
10:56 AM61 °FOvercast.9 mph72%30.19 "Hg10 mi
9:56 AM65 °FOvercast.3 mph47%30.17 "Hg10 mi
8:56 AM65 °FMore clouds than sun.8 mph44%30.15 "Hg10 mi
7:56 AM64 °FMore clouds than sun.15 mph47%30.13 "Hg10 mi
6:56 AM63 °FPassing clouds.13 mph52%30.11 "Hg10 mi
5:56 AM64 °FPartly cloudy.14 mph47%30.09 "Hg10 mi
4:56 AM63 °FPartly cloudy.15 mph52%30.07 "Hg10 mi
3:56 AM61 °FMostly cloudy.3 mph58%30.05 "Hg10 mi
2:56 AM59 °FMostly cloudy.No wind69%30.04 "Hg10 mi
1:56 AM63 °FPassing clouds.No wind43%30.03 "Hg10 mi
12:56 AM57 °FPassing clouds.3 mph78%30.02 "Hg10 mi
11:56 PM
Jan 26
56 °FPartly cloudy.5 mph87%30.01 "Hg9 mi
Weather by CustomWeather, © 2014

See weather overviewHow to use our weather pages